        P/2008 Y12 = 2014 K3 (SOHO)
    Epoch 2014 May 23.0 TT = JDT 2456800.5
    T 2014 May 17.88582 TT                                  MPC
    q   0.0671057            (2000.0)            P               Q
    n   0.18272247     Peri.  144.30899     -0.10984942     -0.94530154
    a   3.0756818      Node   309.84545     +0.79359461     +0.10264158
    e   0.9781819      Incl.   23.58102     +0.59844857     -0.30962833
    P   5.39
    From 67 observations 2008 Dec. 21-2014 May 17.
    
    Residuals in seconds of arc (or two decimals in units of degrees)
    K08CL  C49 78.4+ 80.6+ Y  K145H  249 13.1+  3.6- Y  K145H  249(15.8- 74.7-)Y
    K08CL  C49 88.8+ 44.6+ Y  K145H  249  5.1+  8.1+ Y  K145H  249  6.5- 12.5- Y
    K08CL  C49(0.04+ 0.04+)Y  K145H  249 10.9+ 11.1+ Y  K145H  249 20.0- 34.0- Y
    K08CL  C49(0.03+ 0.03+)Y  K145H  249 24.1-  2.7- Y  K145H  249  5.0+ 19.4- Y
    K08CL  C49 0.02+ 0.03+ Y  K145H  249  5.4+  5.8+ Y  K145H  249  1.4- 20.4- Y
    K08CL  C49 0.02+ 0.03+ Y  K145H  249  7.9+  5.6+ Y  K145H  249  2.3- 18.2- Y
    K08CL  C49 99.0+ 67.9+ Y  K145H  249  9.0+  5.3- Y  K145H  249 28.2- 49.5- Y
    K08CL  C49 68.5+ 66.2+ Y  K145H  249 12.5- 29.1+ Y  K145H  249  4.6+ 22.6- Y
    K08CL  C49 28.2+ 39.2+ Y  K145H  249  2.4+  3.7+ Y  K145H  249  4.5+ 27.3- Y
    K08CL  C49  8.8+ 61.8+ Y  K145H  249 19.8+  8.7+ Y  K145H  249  3.8+ 25.6- Y
    K08CM  C49  2.6- 80.3+ Y  K145H  249  3.5+  5.9+ Y  K145H  249  2.3+ 27.6- Y
    K08CM  C49 27.6+ 45.8+ Y  K145H  249 34.3- 36.8- Y  K145H  249 64.9- 14.5- Y
    K08CM  C49 79.5- 16.4+ Y  K145H  249  4.3+  2.3+ Y  K145H  249(0.01- 0.03-)Y
    K08CM  C49 66.0- 26.2+ Y  K145H  249 12.9+  2.5- Y  K145H  249 17.8- 84.9- Y
    K08CM  C49(97.8- 47.3+)Y  K145H  249  5.9+  2.5+ Y  K145H  249  2.0- 29.9- Y
    K08CM  249 32.0- 25.3+ Y  K145H  249 17.0+ 10.8+ Y  K145H  249  2.5+ 37.3- Y
    K08CM  249 36.4- 24.9+ Y  K145H  249 27.8+  0.4+ Y  K145H  249  0.1+ 37.4- Y
    K08CM  249 37.5- 18.7+ Y  K145H  249  5.1+  1.4+ Y  K145H  249 14.4- 79.1- Y
    K08CM  249 42.6- 14.9+ Y  K145H  249  4.8+  2.4- Y  K145H  249  2.4- 39.4- Y
    K08CM  249 38.8- 12.2+ Y  K145H  249  5.6+  6.8- Y  K145H  249(0.03- 0.00-)Y
    K08CM  249 43.4- 13.0+ Y  K145H  249  3.7+ 10.9- Y  K145H  249(0.01- 0.03-)Y
    K08CM  249 43.7- 14.3+ Y  K145H  249 16.4- 11.7- Y  K145H  249(0.01- 0.03-)Y
    K145H  249(42.3+ 52.5-)Y  K145H  249  6.5+  9.2- Y  K145H  249  5.4+ 49.0- Y
    K145H  249 21.2- 11.1+ Y  K145H  249  6.1+ 20.7+ Y  K145H  249  3.5- 45.2- Y
    K145H  249  0.9-  3.7+ Y  K145H  249  0.9+  5.1- Y
    K145H  249 13.9+ 13.1- Y  K145H  249  3.2+  5.6- Y
    
    Gareth V. Williams           (C) Copyright 2014 MPC           M.P.E.C. 2014-K37
    

    Read MPEC 2014-K36 Read MPEC 2014-K38


    MPEC number:

    Enter an MPEC number in one of the following forms:

    • 1997-B01 (the full form)
    • J97B01 (the packed version of the full form)
    • B01 (the abbreviated form)